#timestamp,LO_Frequency,Hit,StdDev 
1654747215.3,286047002.4,P
1654747235.1,286047000.0,N
1654747255.9,286047000.4,N
1654747275.7,286047002.4,N
1654747295.6,286047002.4,N
1654747315.4,286047000.2,N
1654747335.2,286047000.7,N
1654747355.1,286047001.2,N
1654747356.0,286047001.2,N
1654747375.8,286047001.2,N
1654747395.6,286046998.6,N
1654747415.5,286046999.0,N
1654747435.3,286046999.5,N
1654747455.2,286046999.5,N
1654747475.9,286046998.7,N
1654747495.7,286046998.8,N
1654747515.6,286047001.2,N
1654747535.4,286047000.9,N
1654747555.2,286046998.3,N
1654747575.1,286047001.0,N
1654747576.0,286047001.0,N
1654747595.8,286047000.0,N
1654747615.7,286047000.6,N
1654747635.5,286047000.6,N
1654747655.3,286046999.9,N
1654747675.2,286047000.9,N
1654747695.0,286046999.8,N
1654747695.9,286046999.8,N
1654747715.7,286047000.0,N
1654747735.6,286047000.1,N
1654747755.4,286047000.0,N
1654747775.3,286046998.7,N
1654747795.1,286046998.2,N
1654747796.0,286046998.2,N
1654747815.8,286046997.1,N
1654747835.7,286046996.7,Y
1654747855.5,286047001.2,P
1654747875.4,286047000.5,N
1654747895.2,286047001.2,N
1654747915.0,286046998.1,Y
1654747915.9,286046998.1,P
1654747935.8,286046999.2,N
1654747955.6,286046997.4,N
1654747975.5,286046997.2,N
1654747995.3,286046997.3,N
1654748015.1,286046996.7,N
1654748035.9,286046997.1,N
1654748055.7,286046995.0,Y
1654748075.5,286046998.8,P
1654748095.4,286046996.5,P
1654748115.2,286046997.2,N
1654748135.1,286046999.5,N
1654748136.0,286046999.5,N
1654748155.8,286046998.2,N
1654748175.6,286047000.4,N
1654748195.5,286047000.7,N
1654748215.3,286047000.7,N
1654748235.1,286046998.2,N
1654748255.9,286047000.7,N
1654748275.7,286046998.1,N
1654748295.6,286046996.7,N
1654748315.4,286046997.2,N
1654748335.2,286046997.2,N
1654748355.1,286046996.6,N
1654748356.0,286046996.6,N
1654748375.8,286046997.2,N
1654748395.6,286046997.5,N
1654748415.5,286046997.1,N
1654748435.3,286046996.5,N
1654748455.2,286046997.6,N
1654748475.9,286046999.5,N
1654748495.7,286047000.8,N
1654748515.6,286047001.1,N
1654748535.4,286047000.2,N
1654748555.3,286046999.7,N
1654748575.1,286047001.5,N
1654748576.0,286047001.5,N
1654748595.8,286047001.7,N
1654748615.7,286047002.0,N
1654748635.5,286047002.0,N
1654748655.3,286047002.2,N
1654748675.2,286047001.3,N
1654748695.0,286047002.0,N
1654748695.9,286047002.0,N
1654748715.8,286047002.0,N
1654748735.6,286047001.9,N
1654748755.4,286047001.8,N
1654748775.3,286047001.3,N
1654748795.1,286047001.9,N
1654748815.9,286047001.9,N
1654748835.7,286047002.2,N
1654748855.5,286047001.7,N
1654748875.4,286047002.0,N
1654748895.2,286047002.0,N
1654748915.0,286047002.1,N
1654748915.9,286047002.1,N
1654748935.8,286047002.0,N
1654748955.6,286047001.6,N
1654748975.5,286047002.1,N
1654748995.3,286047001.4,N
1654749015.1,286047004.1,Y
1654749035.9,286047002.5,P
1654749055.7,286047002.2,P
1654749075.6,286047001.6,P
1654749095.4,286047002.6,Y
1654749115.2,286047001.1,P
1654749135.1,286047000.6,N
1654749136.0,286047000.6,N
1654749155.8,286046998.5,N
1654749175.7,286047000.8,N
1654749195.5,286047000.2,N
1654749215.3,286047000.4,N
1654749235.2,286047000.7,N
1654749255.0,286047000.8,N
1654749255.9,286047000.8,N
1654749275.7,286047000.4,N
1654749295.6,286047000.4,N
1654749315.4,286046998.1,N
1654749335.3,286047000.5,N
1654749355.1,286047000.2,N
1654749356.0,286047000.2,N
1654749375.8,286046999.7,N
1654749395.7,286047002.8,Y
1654749415.5,286047000.5,P
1654749435.4,286046998.3,P
1654749455.2,286047000.6,N
1654749475.0,286047000.6,N
1654749475.9,286047000.6,N
1654749495.8,286047001.2,N
1654749515.6,286046998.5,N
1654749535.4,286046999.8,N
1654749555.3,286047000.9,N
1654749575.1,286047001.1,N
1654749595.9,286046998.3,N
1654749615.7,286047001.0,N
1654749635.5,286047000.5,N
1654749655.4,286047000.8,N
1654749675.2,286046999.7,N
1654749695.0,286046999.8,N
1654749695.9,286046999.8,N
1654749715.8,286047002.8,Y
1654749735.6,286046999.9,P
1654749755.5,286047000.2,N
1654749775.3,286047000.5,P
1654749795.1,286047002.7,Y
1654749815.9,286047000.1,P
1654749835.7,286047000.0,N
1654749855.5,286047001.0,P
1654749875.4,286046999.7,N
1654749895.2,286047002.7,Y
1654749915.1,286046999.7,P
1654749916.0,286046999.7,N
1654749935.8,286046999.9,N
1654749955.6,286047000.6,N
1654749975.5,286047001.0,N
1654749995.3,286047000.3,N
1654750015.2,286047002.5,Y
1654750035.9,286047002.3,P
1654750055.7,286046999.9,N
1654750075.6,286047000.5,N
1654750095.4,286047000.9,N
1654750115.2,286047000.3,N
1654750135.1,286047002.7,Y
1654750136.0,286047002.7,P
1654750155.8,286047000.7,N
1654750175.7,286046999.7,N
1654750195.5,286047001.0,N
1654750215.3,286047000.7,N
1654750235.2,286047001.2,N
1654750255.0,286047000.4,N
1654750255.9,286047000.4,N
1654750275.8,286047000.7,N
1654750295.6,286047000.8,N
1654750315.4,286047000.0,N
1654750335.3,286047000.5,N
1654750355.1,286047002.3,Y
1654750375.8,286047000.5,P
1654750395.7,286047002.4,P
1654750415.5,286047000.3,N
1654750435.4,286047000.5,N
1654750455.2,286047000.8,N
1654750475.0,286047000.7,N
1654750475.9,286047000.7,N
1654750495.8,286047001.0,N
1654750515.6,286047000.1,N
1654750535.5,286047002.6,Y
1654750555.3,286047000.5,P
1654750575.1,286047001.1,P
1654750595.9,286047001.1,P
1654750615.7,286047001.1,Y
1654750635.5,286046998.6,P
1654750655.4,286046996.5,P
1654750675.2,286046999.6,N
1654750695.1,286046996.9,N
1654750696.0,286046996.9,N
1654750715.8,286046999.3,N
1654750735.6,286046997.2,N
1654750755.5,286046998.8,N
1654750775.3,286046999.0,N
1654750795.1,286046998.1,N
